Location: Newark
(37.9717°N, 99.9089°W)
Time: 11:40:15
(UTC+00:00)

Tiangong - Visible Passes

Search period start: 27 September 2021 00:00
Search period end: 07 October 2021 00:00
Orbit: 382 x 385 km, 41.5° (Epoch: 26 September)

Date Brightness Start Highest point End Pass type
(mag) Time Alt. Az. Time Alt. Az. Time Alt. Az.
27 Sep 2.4 10:44:08 35° SE 10:44:08 35° SE 10:46:38 10° E visible
28 Sep 1.0 11:19:24 38° W 11:20:27 77° NNW 11:23:37 10° ENE visible
29 Sep 3.7 10:22:24 21° ENE 10:22:24 21° ENE 10:23:40 10° ENE visible
29 Sep 1.8 11:54:36 11° W 11:57:26 44° N 12:00:30 10° ENE visible
30 Sep 1.5 10:57:34 53° N 10:57:34 53° N 11:00:31 10° ENE visible
01 Oct 4.8 10:00:30 10° ENE 10:00:30 10° ENE 10:00:34 10° ENE visible
01 Oct 1.9 11:32:42 21° WNW 11:34:25 41° N 11:37:27 10° ENE visible
02 Oct 3.1 10:35:38 27° NE 10:35:38 27° NE 10:37:24 10° ENE visible
02 Oct 1.6 12:08:21 10° WNW 12:11:27 52° N 12:14:33 10° E visible
03 Oct 1.8 11:10:46 37° NNW 11:11:23 43° N 11:14:26 10° E visible
04 Oct 4.4 10:13:44 14° ENE 10:13:44 14° ENE 10:14:18 10° ENE visible
04 Oct 1.2 11:45:56 16° WNW 11:48:20 73° NNE 11:51:30 10° ESE visible
05 Oct 2.2 10:48:56 42° NE 10:48:56 42° NE 10:51:23 10° E visible
06 Oct 1.0 11:24:13 42° W 11:25:07 72° SSW 11:28:16 10° ESE visible
